map of KLMO home
KLMO - Airport
Location
City:  Longmont, Colorado, United States
Name:Vance Brand Airport
ICAO:KLMO
FAA LID:LMO

Details
Type:Airport (Airfield)
Use:Public/Civil
Latitude:4009'52"N (40.164389)
Longitude:10509'49"W (-105.163638)
Datum:WGS 1984
Elevation:5055 ft (1541 m)
Variation:8.44E (WMM2015 magnetic declination)
-0.10 annual change
Runways:1
Longest:4799 × 75 ft (1463 × 23 m), paved

Time
Time Zone:UTC-7 (DST-6)
Local Time:

Weather
METAR:KLMO 200113Z AUTO 28005KT 10SM CLR 02/M04 A2955 RMK AO2 T00191037

Related Locations
Nearby:
Farthest:RRG: 10871 mi / 17495 km
Plaine Corail, Rodrigues Island, MU

Find:

   beyond  
but within

Other Information
Maps:
NOTAMs:
Links:
Sources:

  
flag of United States
flag of Colorado
  

Sectional Chart

Flight Planning
at skyvector.com

Satellite Image

Google Maps Satellite view

 

Copyright © 2004-2017 Karl L. Swartz. All rights reserved.
The Great Circle Mapper name and logo are trademarks of the Great Circle Mapper.
All other trademarks mentioned herein belong to their respective owners.
Please see credits for attibutions and further copyright information.

  Follow gcmap on Facebook Follow gcmap on Twitter Follow gcmap on Google+ GCmap on LinkedIn

hCard Microformat

Geo Microformat